Wind_Speed
29 30 31 30 31 31 31 32 33 34 34 33 33 34 32 31 31 31 31 28 27 27 28 28 28 25 23 20 18 15 14 15 13 9 12 9 8 8 7 5 9 13 14
30 30 33 33 33 32 31 32 33 33 33 31 32 31 30 29 28 29 29 28 28 27 28 29 30 29 26 24 22 18 14 14 11 7 8 6 12 13 9 6 8 13 16
32 32 34 37 36 34 34 34 31 29 28 29 25 27 29 28 27 26 25 25 26 25 26 27 30 31 28 26 24 18 13 11 11 7 7 9 14 16 10 10 10 11 16
31 31 32 34 34 32 31 30 30 27 26 27 25 25 24 22 21 22 22 21 21 25 26 23 23 24 24 23 21 19 16 14 14 12 8 12 12 11 11 12 14 12 15
31 31 32 31 31 31 31 31 32 30 25 23 25 25 23 25 25 22 21 22 26 28 25 25 23 22 22 21 20 19 18 17 16 13 13 13 10 8 11 12 15 18 19
31 33 31 30 29 28 29 31 33 32 27 23 22 19 16 18 19 19 22 24 28 28 25 25 25 24 24 23 21 21 21 21 20 17 17 15 13 14 12 12 16 17 23
31 34 36 33 29 26 26 29 31 30 26 24 25 20 17 20 21 21 21 21 21 22 24 23 23 22 22 22 22 22 22 24 26 23 20 20 17 16 17 15 17 16 11
34 33 35 34 32 30 29 31 33 33 29 27 26 25 23 24 25 25 26 24 22 21 21 21 21 21 21 22 23 24 24 24 25 25 24 23 21 21 20 18 15 11 12
33 32 34 33 33 34 34 32 36 40 36 30 31 31 28 26 27 28 29 29 28 25 23 23 22 22 23 22 23 26 29 29 28 29 28 26 24 24 24 22 19 16 15
27 27 28 33 31 28 28 31 38 43 42 39 38 37 32 30 31 32 31 30 29 27 26 25 26 27 26 25 26 28 30 31 31 32 31 29 28 27 27 26 22 21 20
22 22 21 22 24 22 22 28 34 35 34 35 38 38 33 31 32 35 35 34 32 30 30 30 31 31 30 30 30 29 29 30 31 32 32 30 29 28 27 25 24 23 22
17 21 24 25 22 20 22 30 37 38 38 36 33 32 31 31 31 35 39 40 38 36 34 34 35 34 34 34 32 31 29 28 28 30 31 30 29 29 29 27 27 27 27
13 16 21 26 22 21 23 25 26 26 26 28 28 29 32 32 34 38 40 42 39 38 38 38 38 37 36 35 34 33 31 30 30 29 29 28 27 28 28 27 27 28 28
18 18 21 26 28 29 29 25 23 21 21 21 22 25 28 30 32 35 39 40 39 38 37 39 40 39 37 34 33 33 33 32 33 32 31 30 29 29 29 29 28 27 27
26 28 32 31 31 31 30 29 25 24 26 25 25 24 22 26 28 29 33 36 39 40 39 38 39 39 37 35 35 35 36 36 35 35 34 33 33 33 34 34 32 31 30
35 37 37 35 35 31 32 33 33 31 27 27 32 33 30 30 35 35 37 39 39 40 39 38 40 42 43 43 42 41 40 39 38 38 37 37 37 37 37 37 35 34 34
38 38 37 37 37 35 32 32 33 33 30 31 36 41 42 42 42 41 42 44 42 43 45 44 43 43 45 48 48 46 44 43 42 41 40 41 42 41 40 39 38 38 38
36 38 39 39 42 43 40 35 34 34 33 36 37 37 41 43 45 47 48 48 46 43 43 44 44 44 44 46 48 47 47 49 46 43 42 42 43 43 43 42 41 40 40
33 36 39 40 37 39 39 40 41 39 38 39 39 40 42 44 47 51 53 54 53 53 53 51 49 48 48 48 48 47 45 46 46 44 41 40 41 42 43 43 43 43 44
28 31 34 36 35 33 31 33 36 39 41 42 44 44 44 45 48 52 54 55 53 51 49 49 50 49 49 49 48 47 47 45 44 45 46 46 46 42 43 46 47 47 47
28 30 31 32 33 35 37 38 37 37 39 41 43 46 46 46 47 47 47 48 47 46 45 45 45 46 46 45 45 46 46 45 46 47 47 47 46 45 43 44 46 49 50
27 28 30 32 34 36 38 39 40 40 40 39 40 42 44 46 47 49 51 50 50 48 47 46 46 45 45 46 47 48 49 49 49 49 48 47 48 48 46 45 45 47 49
28 30 32 34 36 39 40 39 40 41 43 44 44 44 45 46 46 48 50 51 52 51 51 50 49 48 47 46 46 47 47 48 47 46 47 48 49 48 49 50 48 47 48
30 33 34 36 36 38 38 37 39 42 44 46 47 46 45 44 45 46 47 49 51 53 54 55 54 54 53 51 49 48 46 45 43 43 44 47 48 48 49 51 52 51 50
31 33 33 33 33 34 35 36 39 42 43 44 44 43 43 43 43 43 45 46 48 50 51 52 52 52 51 51 50 49 49 48 48 48 48 50 51 50 51 51 52 53 51
30 32 33 33 34 34 36 39 41 40 37 37 38 37 37 37 39 40 41 42 43 45 46 48 49 50 50 50 50 49 48 49 50 51 52 53 53 52 52 52 53 53 53
Wind_Direction
264 266 268 269 269 269 269 271 273 273 271 274 274 275 273 272 267 260 253 254 252 253 261 268 267 265 259 252 260 268 271 275 270 282 277 267 275 274 274 223 203 190 192
262 265 268 267 268 270 272 274 277 275 270 270 272 273 269 267 268 263 257 256 257 258 258 261 262 260 260 257 260 259 263 265 250 280 283 281 284 275 262 240 226 219 212
261 261 266 266 268 272 272 271 273 273 268 270 267 271 267 263 264 261 256 257 258 258 261 261 258 254 256 257 256 252 250 248 244 246 253 281 274 266 266 271 249 236 228
261 261 263 266 267 269 270 266 265 266 273 269 263 271 258 249 257 258 252 250 253 258 260 253 251 249 253 255 253 248 246 247 244 240 237 271 256 258 259 271 256 247 239
259 260 261 263 263 263 261 259 260 264 270 268 258 265 254 248 255 261 259 254 253 254 246 246 250 251 258 258 252 250 250 246 242 244 240 228 255 248 266 269 276 261 251
262 258 260 261 262 263 258 256 259 258 257 259 256 254 249 249 250 252 252 254 252 245 246 253 254 252 251 250 247 248 250 248 246 247 248 236 239 252 262 262 261 279 270
264 259 255 257 258 261 258 253 253 251 250 245 246 243 245 252 252 248 245 244 244 246 247 245 246 248 247 243 244 247 251 252 251 249 245 242 247 250 254 247 241 242 242
258 257 254 252 253 248 249 247 247 245 242 244 246 246 242 244 246 245 247 245 242 243 247 247 244 243 245 245 247 251 252 251 249 247 246 246 244 246 249 251 250 236 232
254 253 252 251 249 250 249 243 241 240 238 239 244 242 239 245 242 241 247 250 250 249 253 257 255 252 251 251 252 254 253 249 246 246 247 245 241 245 248 248 250 249 240
246 247 247 247 247 255 254 246 240 236 233 228 236 236 238 246 244 242 243 246 250 252 254 258 258 255 255 258 257 253 250 250 248 244 242 243 243 242 245 246 246 246 247
238 236 234 237 241 246 242 233 228 225 231 233 235 235 238 243 248 250 248 245 247 252 254 253 254 255 254 255 255 255 251 247 244 244 243 243 242 243 244 246 248 248 248
235 233 230 232 240 244 246 246 247 251 253 253 251 249 246 247 250 251 250 248 247 250 251 252 252 251 252 252 253 253 251 250 248 247 247 247 247 248 248 249 251 253 255
261 254 250 247 253 272 284 281 271 268 266 260 256 252 249 248 248 248 248 248 248 251 251 251 252 251 249 249 252 251 248 247 246 245 245 245 246 247 247 247 249 252 256
253 250 247 255 269 277 281 273 265 262 259 258 258 255 255 255 253 250 249 250 251 251 251 252 252 252 251 251 252 253 249 247 247 247 246 245 245 247 249 248 248 250 253
250 258 253 256 265 265 250 254 259 264 265 259 247 240 250 257 255 254 254 253 254 256 255 255 254 253 252 251 250 250 250 250 251 252 251 248 247 247 247 246 245 247 251
257 257 262 265 264 258 255 259 262 264 263 250 244 246 247 251 258 258 259 259 257 259 259 258 258 257 256 254 253 252 252 253 253 255 255 254 250 247 248 249 250 252 255
261 263 262 260 255 248 246 253 257 261 259 257 254 256 262 264 263 261 262 263 260 258 259 259 259 260 262 262 260 258 257 254 253 256 258 258 256 254 252 251 252 254 255
264 262 259 260 256 254 254 257 260 263 265 266 266 265 264 266 263 258 257 259 261 262 263 262 258 257 258 260 261 261 261 261 259 259 260 260 261 260 259 258 257 257 257
276 274 273 278 279 277 276 276 276 276 276 275 274 272 270 267 264 261 262 264 265 266 268 267 265 264 264 264 265 265 263 261 261 261 263 264 265 266 266 266 265 264 263
280 279 279 281 284 283 277 272 270 271 270 268 267 265 264 263 262 261 261 263 265 266 266 267 266 266 265 266 267 269 270 269 268 268 269 270 270 269 269 270 269 267 266
284 283 283 282 282 282 282 281 281 279 277 275 271 268 265 262 261 261 261 260 260 262 263 264 264 264 263 262 262 262 264 266 267 268 269 271 273 272 267 264 261 261 262
295 293 291 288 284 281 279 280 280 279 277 274 270 267 265 262 261 260 261 262 263 263 263 263 263 263 262 261 260 259 259 259 259 262 263 264 264 265 264 263 260 259 260
300 299 298 298 296 293 291 288 285 283 280 277 273 268 265 265 264 262 261 260 261 261 261 261 261 260 259 258 257 257 256 256 256 255 256 257 258 259 261 262 262 261 260
302 303 303 302 299 295 293 291 288 286 285 283 278 273 269 266 264 263 262 262 260 260 260 261 261 262 262 260 257 255 255 255 254 252 252 254 256 257 258 259 259 260 259
305 302 299 298 295 291 288 287 287 288 287 283 279 276 271 267 265 263 263 263 262 260 259 259 260 260 260 260 259 257 255 255 254 252 251 253 254 255 258 260 260 261 260
312 312 310 306 301 298 296 296 295 294 290 283 278 275 273 270 268 267 266 266 266 264 262 259 258 258 259 259 258 256 255 254 253 253 252 253 255 257 258 259 261 261 260
Height
5798 5799 5800 5801 5802 5803 5803 5803 5804 5804 5803 5802 5802 5803 5804 5804 5804 5806 5808 5811 5814 5815 5815 5816 5817 5819 5819 5818 5817 5815 5815 5816 5817 5816 5815 5816 5817 5817 5816 5815 5815 5815 5816
5789 5791 5793 5794 5795 5795 5795 5795 5795 5796 5795 5794 5793 5794 5795 5796 5796 5797 5799 5802 5805 5807 5808 5809 5811 5812 5813 5813 5813 5812 5812 5812 5813 5811 5812 5812 5813 5813 5815 5815 5814 5814 5815
5782 5783 5784 5785 5786 5787 5787 5787 5788 5788 5788 5787 5785 5786 5787 5788 5789 5790 5792 5794 5796 5798 5801 5803 5804 5806 5807 5808 5808 5808 5808 5808 5808 5807 5807 5808 5809 5810 5813 5814 5813 5812 5813
5774 5773 5775 5775 5776 5777 5777 5778 5780 5781 5781 5779 5779 5779 5779 5781 5782 5783 5785 5786 5788 5791 5793 5796 5798 5798 5800 5802 5801 5803 5804 5804 5804 5805 5804 5805 5807 5806 5809 5810 5810 5810 5811
5765 5765 5765 5766 5766 5767 5768 5770 5772 5773 5773 5772 5772 5773 5773 5774 5775 5776 5778 5780 5782 5784 5787 5790 5791 5792 5794 5795 5796 5797 5799 5800 5801 5801 5802 5801 5801 5803 5804 5804 5805 5807 5808
5754 5756 5757 5757 5758 5758 5759 5760 5763 5764 5764 5764 5765 5766 5766 5767 5769 5770 5772 5774 5776 5778 5780 5782 5784 5785 5787 5789 5790 5791 5794 5795 5795 5797 5799 5797 5797 5797 5797 5798 5800 5801 5802
5744 5746 5748 5748 5749 5750 5750 5752 5753 5755 5756 5757 5759 5759 5759 5762 5763 5764 5766 5768 5770 5772 5774 5774 5776 5778 5781 5782 5783 5784 5786 5788 5790 5791 5793 5793 5793 5795 5795 5794 5794 5794 5796
5733 5735 5737 5739 5740 5741 5742 5743 5745 5747 5748 5749 5749 5752 5752 5754 5756 5758 5760 5761 5763 5765 5767 5769 5769 5770 5772 5775 5776 5777 5779 5780 5783 5785 5787 5788 5788 5790 5790 5790 5789 5789 5789
5722 5724 5725 5728 5730 5732 5734 5735 5737 5738 5738 5739 5740 5743 5745 5748 5750 5752 5753 5755 5756 5758 5761 5762 5762 5764 5766 5767 5769 5770 5772 5774 5776 5778 5780 5781 5781 5782 5783 5784 5784 5783 5785
5715 5716 5717 5718 5720 5723 5724 5726 5729 5729 5729 5729 5731 5734 5736 5739 5741 5743 5745 5747 5748 5750 5751 5752 5754 5755 5757 5758 5759 5762 5764 5766 5768 5771 5772 5773 5773 5774 5775 5777 5778 5778 5779
5708 5708 5710 5710 5712 5715 5717 5719 5721 5721 5723 5724 5724 5725 5726 5728 5731 5734 5736 5738 5739 5741 5741 5742 5744 5745 5747 5748 5750 5751 5753 5755 5758 5761 5763 5765 5765 5767 5768 5769 5771 5772 5773
5702 5703 5704 5705 5705 5707 5708 5710 5711 5711 5712 5714 5714 5716 5717 5718 5719 5722 5726 5729 5729 5730 5731 5731 5733 5735 5737 5739 5740 5742 5744 5745 5748 5751 5754 5755 5756 5759 5761 5762 5763 5764 5765
5697 5697 5698 5698 5698 5699 5699 5700 5699 5700 5702 5703 5704 5706 5706 5706 5707 5709 5712 5715 5717 5719 5720 5721 5722 5725 5727 5729 5730 5732 5734 5736 5738 5740 5743 5745 5747 5750 5752 5753 5754 5756 5757
5692 5693 5694 5694 5694 5693 5693 5692 5692 5693 5695 5697 5696 5697 5697 5698 5698 5700 5701 5703 5705 5708 5710 5712 5713 5715 5718 5719 5721 5723 5725 5727 5729 5731 5733 5735 5737 5740 5742 5744 5744 5746 5748
5686 5686 5687 5687 5687 5686 5687 5687 5686 5686 5687 5689 5689 5690 5692 5692 5693 5693 5693 5694 5695 5698 5699 5702 5704 5705 5707 5707 5709 5711 5713 5715 5718 5721 5723 5725 5727 5728 5731 5732 5734 5735 5737
5677 5677 5678 5678 5679 5679 5679 5679 5679 5679 5678 5679 5680 5680 5681 5682 5682 5684 5684 5684 5685 5687 5689 5690 5692 5693 5693 5694 5696 5699 5702 5704 5706 5708 5711 5713 5714 5716 5719 5720 5722 5723 5725
5670 5668 5668 5668 5669 5669 5669 5669 5669 5669 5670 5670 5670 5670 5670 5670 5670 5671 5671 5672 5673 5674 5676 5678 5680 5680 5680 5681 5683 5686 5689 5691 5694 5696 5698 5699 5701 5703 5705 5707 5709 5711 5713
5659 5658 5658 5657 5658 5658 5658 5658 5658 5656 5657 5657 5657 5657 5657 5657 5657 5657 5658 5659 5660 5661 5662 5664 5665 5666 5667 5668 5669 5672 5675 5678 5681 5684 5686 5687 5687 5689 5691 5693 5694 5697 5700
5649 5648 5647 5647 5648 5647 5646 5644 5642 5642 5642 5643 5643 5643 5643 5644 5643 5642 5642 5643 5645 5645 5646 5649 5651 5653 5654 5656 5658 5659 5661 5664 5665 5666 5669 5672 5673 5674 5676 5678 5680 5681 5684
5642 5639 5638 5637 5635 5633 5632 5631 5630 5629 5628 5627 5627 5628 5628 5627 5627 5627 5627 5628 5628 5630 5630 5631 5632 5636 5639 5642 5644 5645 5646 5648 5649 5649 5650 5653 5657 5660 5662 5663 5664 5665 5668
5633 5631 5629 5627 5625 5622 5620 5619 5618 5617 5615 5613 5612 5610 5611 5611 5610 5610 5610 5611 5613 5614 5613 5613 5616 5619 5622 5626 5628 5630 5631 5633 5634 5634 5636 5638 5640 5643 5646 5649 5652 5650 5651
5625 5622 5619 5616 5614 5612 5610 5608 5606 5604 5602 5600 5598 5595 5593 5593 5594 5595 5596 5597 5597 5597 5597 5597 5599 5603 5606 5608 5610 5611 5613 5615 5616 5618 5621 5623 5624 5626 5629 5631 5633 5635 5636
5617 5614 5611 5607 5603 5598 5595 5593 5591 5588 5585 5583 5581 5579 5578 5578 5578 5578 5579 5580 5580 5581 5582 5582 5583 5585 5588 5591 5592 5593 5595 5597 5600 5602 5604 5606 5608 5609 5611 5612 5614 5616 5619
5610 5606 5601 5597 5592 5588 5584 5581 5577 5573 5570 5567 5564 5563 5562 5562 5561 5561 5561 5561 5562 5564 5566 5567 5567 5568 5571 5574 5575 5576 5578 5580 5582 5584 5587 5589 5591 5592 5594 5595 5596 5598 5600
5601 5596 5592 5587 5582 5577 5574 5569 5565 5561 5556 5552 5548 5547 5546 5545 5545 5545 5546 5546 5546 5547 5548 5549 5549 5551 5552 5554 5557 5559 5562 5563 5565 5567 5569 5571 5573 5575 5577 5579 5580 5581 5583
5592 5586 5581 5575 5570 5565 5560 5555 5550 5546 5542 5538 5535 5533 5532 5531 5531 5530 5530 5530 5530 5530 5531 5531 5532 5533 5534 5536 5538 5541 5543 5545 5547 5549 5551 5553 5556 5557 5558 5560 5562 5563 5564